TimeEST,TemperatureF,Dew PointF,Humidity,Sea Level PressureIn,VisibilityMPH,Wind Direction,Wind SpeedMPH,Gust SpeedMPH,PrecipitationIn,Events,Conditions,WindDirDegrees,DateUTC
12:15 AM,40.6,39.4,95,30.04,0.2,Calm,Calm,-,N/A,,Overcast,0,2014-01-26 05:15:00
12:35 AM,39.4,38.3,96,30.04,0.2,Calm,Calm,-,N/A,,Overcast,0,2014-01-26 05:35:00
12:55 AM,38.8,37.4,95,30.03,10.0,Calm,Calm,-,N/A,,Scattered Clouds,0,2014-01-26 05:55:00
1:15 AM,38.1,36.3,93,30.03,10.0,Calm,Calm,-,N/A,,Clear,0,2014-01-26 06:15:00
1:35 AM,38.3,36.7,94,30.02,10.0,Calm,Calm,-,N/A,,Clear,0,2014-01-26 06:35:00
1:55 AM,38.3,36.7,94,30.02,7.0,Calm,Calm,-,N/A,,Clear,0,2014-01-26 06:55:00
2:15 AM,38.8,37.2,94,30.03,7.0,Calm,Calm,-,N/A,,Scattered Clouds,0,2014-01-26 07:15:00
2:35 AM,37.9,36.3,94,30.03,5.0,Calm,Calm,-,N/A,,Clear,0,2014-01-26 07:35:00
2:55 AM,38.3,36.9,95,30.03,5.0,Calm,Calm,-,N/A,,Clear,0,2014-01-26 07:55:00
3:15 AM,36.9,35.1,93,30.02,10.0,Calm,Calm,-,N/A,,Clear,0,2014-01-26 08:15:00
3:35 AM,37.2,35.8,95,30.02,2.0,Calm,Calm,-,N/A,,Clear,0,2014-01-26 08:35:00
3:55 AM,34.9,32.7,92,30.02,10.0,Calm,Calm,-,N/A,,Scattered Clouds,0,2014-01-26 08:55:00
4:15 AM,35.1,32.9,92,30.02,10.0,Calm,Calm,-,N/A,,Scattered Clouds,0,2014-01-26 09:15:00
4:35 AM,35.1,33.3,93,30.02,2.5,Calm,Calm,-,N/A,,Overcast,0,2014-01-26 09:35:00
4:55 AM,34.7,32.9,93,30.02,7.0,Calm,Calm,-,N/A,,Mostly Cloudy,0,2014-01-26 09:55:00
5:15 AM,34.7,33.1,94,30.02,7.0,Calm,Calm,-,N/A,,Scattered Clouds,0,2014-01-26 10:15:00
5:35 AM,34.9,32.9,92,30.03,10.0,Calm,Calm,-,N/A,,Clear,0,2014-01-26 10:35:00
5:55 AM,34.7,32.5,92,30.03,10.0,Calm,Calm,-,N/A,,Clear,0,2014-01-26 10:55:00
6:15 AM,34.5,32.5,92,30.04,10.0,Calm,Calm,-,N/A,,Clear,0,2014-01-26 11:15:00
6:35 AM,34.7,32.7,92,30.04,10.0,Calm,Calm,-,N/A,,Clear,0,2014-01-26 11:35:00
6:55 AM,34.7,32.9,93,30.05,10.0,Calm,Calm,-,N/A,,Clear,0,2014-01-26 11:55:00
7:15 AM,35.4,33.1,91,30.06,10.0,Calm,Calm,-,N/A,,Clear,0,2014-01-26 12:15:00
7:35 AM,35.6,33.4,92,30.06,10.0,Calm,Calm,-,N/A,,Clear,0,2014-01-26 12:35:00
7:55 AM,35.6,33.4,92,30.06,10.0,Calm,Calm,-,N/A,,Clear,0,2014-01-26 12:55:00
8:15 AM,36.3,33.8,91,30.06,10.0,Calm,Calm,-,N/A,,Clear,0,2014-01-26 13:15:00
8:35 AM,37.4,34.9,91,30.08,10.0,Calm,Calm,-,N/A,,Clear,0,2014-01-26 13:35:00
8:55 AM,39.2,36.1,89,30.07,10.0,Calm,Calm,-,N/A,,Clear,0,2014-01-26 13:55:00
9:15 AM,41.2,38.3,89,30.07,10.0,Calm,Calm,-,N/A,,Clear,0,2014-01-26 14:15:00
9:35 AM,43.3,39.7,87,30.08,10.0,Calm,Calm,-,N/A,,Clear,0,2014-01-26 14:35:00
9:55 AM,45.9,40.3,81,30.08,10.0,Calm,Calm,-,N/A,,Clear,0,2014-01-26 14:55:00
10:15 AM,47.7,39.6,73,30.09,10.0,WSW,3.5,-,N/A,,Clear,250,2014-01-26 15:15:00
10:35 AM,49.5,38.8,67,30.09,10.0,Calm,Calm,-,N/A,,Clear,0,2014-01-26 15:35:00
10:55 AM,51.4,37.2,58,30.10,10.0,SW,3.5,-,N/A,,Clear,230,2014-01-26 15:55:00
11:15 AM,53.6,37.6,55,30.09,10.0,SSW,3.5,-,N/A,,Clear,200,2014-01-26 16:15:00
11:35 AM,54.7,36.3,50,30.09,10.0,Calm,Calm,-,N/A,,Clear,0,2014-01-26 16:35:00
11:55 AM,55.8,31.5,40,30.08,10.0,SSW,3.5,-,N/A,,Clear,200,2014-01-26 16:55:00
12:15 PM,57.4,30.6,36,30.07,10.0,SSW,8.1,-,N/A,,Clear,210,2014-01-26 17:15:00
12:35 PM,57.7,28.6,33,30.05,10.0,WSW,6.9,-,N/A,,Clear,240,2014-01-26 17:35:00
12:55 PM,59.5,28.6,31,30.04,10.0,SW,4.6,-,N/A,,Clear,220,2014-01-26 17:55:00
1:15 PM,60.4,28.2,29,30.03,10.0,SSW,4.6,-,N/A,,Clear,210,2014-01-26 18:15:00
1:35 PM,61.0,28.2,29,30.01,10.0,SSW,10.4,-,N/A,,Clear,210,2014-01-26 18:35:00
1:55 PM,61.9,28.0,28,30.00,10.0,SSW,9.2,-,N/A,,Clear,210,2014-01-26 18:55:00
2:15 PM,62.2,28.8,28,29.99,10.0,SW,9.2,-,N/A,,Clear,220,2014-01-26 19:15:00
2:35 PM,62.1,29.5,29,29.99,10.0,SW,6.9,-,N/A,,Clear,230,2014-01-26 19:35:00
2:55 PM,62.1,30.2,30,29.98,10.0,SW,6.9,-,N/A,,Clear,220,2014-01-26 19:55:00
3:15 PM,62.2,31.3,31,29.97,10.0,SSW,5.8,-,N/A,,Clear,210,2014-01-26 20:15:00
3:35 PM,62.6,31.1,31,29.97,10.0,SW,6.9,-,N/A,,Clear,220,2014-01-26 20:35:00
3:55 PM,62.2,31.1,31,29.96,10.0,SW,11.5,-,N/A,,Clear,220,2014-01-26 20:55:00
4:15 PM,61.5,31.1,32,29.96,10.0,SW,8.1,-,N/A,,Clear,220,2014-01-26 21:15:00
4:35 PM,61.3,30.7,32,29.96,10.0,South,8.1,-,N/A,,Clear,190,2014-01-26 21:35:00
4:55 PM,60.8,31.3,33,29.95,10.0,SSW,5.8,-,N/A,,Clear,200,2014-01-26 21:55:00
5:15 PM,60.3,30.9,33,29.96,10.0,SSW,6.9,-,N/A,,Clear,200,2014-01-26 22:15:00
5:35 PM,59.9,31.5,34,29.96,10.0,SSW,5.8,-,N/A,,Clear,200,2014-01-26 22:35:00
5:55 PM,59.2,31.8,36,29.96,10.0,South,3.5,-,N/A,,Clear,190,2014-01-26 22:55:00
6:15 PM,58.6,32.0,37,29.96,10.0,Calm,Calm,-,N/A,,Clear,0,2014-01-26 23:15:00
6:35 PM,58.1,32.0,37,29.96,10.0,Calm,Calm,-,N/A,,Clear,0,2014-01-26 23:35:00
6:55 PM,57.0,32.5,40,29.96,10.0,Calm,Calm,-,N/A,,Clear,0,2014-01-26 23:55:00
7:15 PM,55.8,34.0,44,29.96,10.0,Calm,Calm,-,N/A,,Clear,0,2014-01-27 00:15:00
7:35 PM,54.5,35.2,48,29.97,10.0,Calm,Calm,-,N/A,,Clear,0,2014-01-27 00:35:00
7:55 PM,52.0,36.5,56,29.98,10.0,Calm,Calm,-,N/A,,Clear,0,2014-01-27 00:55:00
8:15 PM,51.6,36.0,55,29.99,10.0,Calm,Calm,-,N/A,,Clear,0,2014-01-27 01:15:00
8:35 PM,50.7,37.6,61,29.98,10.0,Calm,Calm,-,N/A,,Clear,0,2014-01-27 01:35:00
8:55 PM,50.9,37.4,60,29.98,10.0,Calm,Calm,-,N/A,,Clear,0,2014-01-27 01:55:00
9:15 PM,50.4,38.5,64,29.98,10.0,SE,3.5,-,N/A,,Clear,140,2014-01-27 02:15:00
9:35 PM,50.9,38.3,62,29.99,10.0,Calm,Calm,-,N/A,,Clear,0,2014-01-27 02:35:00
9:55 PM,50.2,38.8,65,29.98,10.0,Calm,Calm,-,N/A,,Clear,0,2014-01-27 02:55:00
10:15 PM,52.0,37.4,58,29.99,10.0,Calm,Calm,-,N/A,,Scattered Clouds,0,2014-01-27 03:15:00
10:35 PM,52.0,38.7,60,29.99,10.0,Calm,Calm,-,N/A,,Clear,0,2014-01-27 03:35:00
10:55 PM,54.0,36.7,52,29.99,10.0,SSW,3.5,-,N/A,,Clear,200,2014-01-27 03:55:00
11:15 PM,54.9,36.5,50,29.99,10.0,SSW,3.5,-,N/A,,Scattered Clouds,200,2014-01-27 04:15:00
11:35 PM,54.9,36.7,50,29.98,10.0,SW,3.5,-,N/A,,Clear,220,2014-01-27 04:35:00
11:55 PM,54.9,36.9,51,29.98,10.0,SSW,3.5,-,N/A,,Clear,200,2014-01-27 04:55:00